Gunnison, CO

6:19 AM MST on December 09, 2019 (GMT -0700)
Gunnison County

Weather History for KGUC - September, 2019

Change the Weather History Date:

Friday, September 20, 2019

  Actual Average Record
Temperature  
Mean Temperature 56 °F -  
Max Temperature 71 °F 65 °F 78 °F (2014)
Min Temperature 42 °F 31 °F 26 °F (2002)
Degree Days  
Heating Degree Days 8    
Growing Degree Days 6 (Base 50)    
Moisture  
Dew Point 31 °F    
Average Humidity 42    
Maximum Humidity 82    
Minimum Humidity 17    
Precipitation  
Precipitation 0.00 in - - ()
Sea Level Pressure  
Sea Level Pressure 29.85 in    
Wind  
Wind Speed 5 mph ()    
Max Wind Speed 18 mph    
Max Gust Speed 31 mph    
Visibility 10.0 miles    
Events      
Averages and records for this station are not official NWS values.
T = Trace of Precipitation, MM = Missing Value Source: Averaged Metar Reports

Daily Weather History Graph

Daily Weather History Graph

Search for Another Location

Airport or City:

Astronomy

Sep. 20, 2019 Rise Set
Actual Time 6:53 AM MDT 7:08 PM MDT
Civil Twilight 6:27 AM MDT 7:34 PM MDT
Nautical Twilight 5:55 AM MDT 8:05 PM MDT
Astronomical Twilight 5:24 AM MDT 8:37 PM MDT
Moon 11:04 PM MDT (9/20) 12:57 PM MDT (9/20)
Length of Visible Light 13h 07m
Length of Day
12h 14m
Waning Gibbous, 64% of the Moon is Illuminated
Sep 20
Waning Gibbous
Sep 21
Last Quarter
Sep 28
New
Oct 5
First Quarter
Oct 13
Full

Hourly Weather History & Observations

Time (MDT) Temp. Windchill Dew Point Humidity Pressure Visibility Wind Dir Wind Speed Gust Speed Precip Events Conditions
12:56 AM 57.9 °F - 39.0 °F 49% 29.85 in 9.0 mi South 3.5 mph - 0.00 in   Overcast
1:56 AM 55.9 °F - 42.1 °F 60% 29.85 in 10.0 mi East 3.5 mph - N/A   Overcast
2:56 AM 52.0 °F - 43.0 °F 71% 29.85 in 10.0 mi Calm Calm - N/A   Mostly Cloudy
3:56 AM 48.9 °F - 42.1 °F 77% 29.85 in 10.0 mi North 8.1 mph - N/A   Scattered Clouds
5:56 AM 43.0 °F 41.3 °F 37.0 °F 80% 29.88 in 10.0 mi North 3.5 mph - N/A   Clear
6:56 AM 42.1 °F - 37.0 °F 82% 29.91 in 10.0 mi Calm Calm - N/A   Clear
7:56 AM 44.1 °F 39.5 °F 37.0 °F 76% 29.91 in 10.0 mi North 8.1 mph - N/A   Clear
8:56 AM 51.1 °F - 39.0 °F 63% 29.89 in 10.0 mi NNE 4.6 mph - N/A   Clear
9:56 AM 59.0 °F - 37.9 °F 46% 29.84 in 10.0 mi Calm Calm - N/A   Clear
10:56 AM 64.0 °F - 35.1 °F 34% 29.81 in 10.0 mi NW 3.5 mph - N/A   Clear
11:56 AM 68.0 °F - 28.0 °F 22% 29.77 in 10.0 mi WNW 8.1 mph - N/A   Clear
12:56 PM 70.0 °F - 28.0 °F 21% 29.75 in 10.0 mi SW 12.7 mph 19.6 mph N/A   Clear
1:56 PM 71.1 °F - 24.1 °F 17% 29.73 in 10.0 mi South 17.3 mph 25.3 mph N/A   Scattered Clouds
2:56 PM 69.1 °F - 23.0 °F 18% 29.75 in 10.0 mi SW 12.7 mph 23.0 mph N/A   Scattered Clouds
3:56 PM 71.1 °F - 24.1 °F 17% 29.75 in 10.0 mi WSW 18.4 mph 31.1 mph N/A   Mostly Cloudy
4:56 PM 69.1 °F - 21.9 °F 17% 29.78 in 10.0 mi South 18.4 mph 27.6 mph N/A   Mostly Cloudy
5:56 PM 66.0 °F - 27.0 °F 23% 29.82 in 10.0 mi WSW 11.5 mph - N/A   Scattered Clouds
6:56 PM 64.9 °F - 21.9 °F 19% 29.85 in 10.0 mi West 13.8 mph 24.2 mph N/A   Mostly Cloudy
7:56 PM 62.1 °F - 21.9 °F 21% 29.90 in 10.0 mi WNW 6.9 mph - N/A   Mostly Cloudy
8:56 PM 57.9 °F - 21.9 °F 25% 29.91 in 10.0 mi Variable 3.5 mph - N/A   Mostly Cloudy
9:56 PM 51.1 °F - 28.0 °F 41% 29.93 in 10.0 mi Calm Calm - N/A   Partly Cloudy
10:56 PM 48.0 °F - 26.1 °F 42% 29.93 in 10.0 mi West 3.5 mph - N/A   Clear
11:56 PM 46.0 °F 44.8 °F 24.1 °F 42% 29.93 in 10.0 mi North 3.5 mph - N/A   Clear